User: anonymous   Login
Location: Ar Ranvel
(48.3000°N, 4.8833°W)
Time: 21:22:56
(UTC+00:00)
Language:

MetOp-B - Orbit

View from above orbital plane
View from above orbital plane
View from above satellite
View from above satellite

Ground track
Ground track

The orbit data is extracted from the following two-line orbital elements,

1 38771U 12049A   21266.58254281  .00000016  00000-0  27442-4 0  9994
2 38771  98.7054 325.3728 0002258  93.6210  13.0040 14.21493504467816
Epoch (UTC): 23 September 2021 13:58:51
Eccentricity: 0.0002258
inclination: 98.7054°
perigee height: 818 km
apogee height: 822 km
right ascension of ascending node: 325.3728°
argument of perigee: 93.6210°
revolutions per day: 14.21493504
mean anomaly at epoch: 13.0040°
orbit number at epoch: 46781

The dashed part of the orbit path shows where the satellite is in the earth's shadow,  

DLR